TimeEST,TemperatureF,Dew PointF,Humidity,Sea Level PressureIn,VisibilityMPH,Wind Direction,Wind SpeedMPH,Gust SpeedMPH,PrecipitationIn,Events,Conditions,WindDirDegrees,DateUTC
12:53 AM,24.1,14.0,65,30.17,10.0,Calm,Calm,-,N/A,,Clear,0,2013-02-21 05:53:00
1:53 AM,19.9,14.0,78,30.19,10.0,Calm,Calm,-,N/A,,Clear,0,2013-02-21 06:53:00
2:53 AM,21.0,14.0,74,30.19,10.0,Calm,Calm,-,N/A,,Clear,0,2013-02-21 07:53:00
3:53 AM,19.0,15.1,85,30.19,10.0,Calm,Calm,-,N/A,,Clear,0,2013-02-21 08:53:00
4:53 AM,19.9,15.1,81,30.20,10.0,Calm,Calm,-,N/A,,Clear,0,2013-02-21 09:53:00
5:53 AM,19.9,14.0,78,30.22,10.0,Calm,Calm,-,N/A,,Clear,0,2013-02-21 10:53:00
6:53 AM,19.9,14.0,78,30.23,10.0,Calm,Calm,-,N/A,,Clear,0,2013-02-21 11:53:00
7:53 AM,21.9,17.1,82,30.25,10.0,Calm,Calm,-,N/A,,Clear,0,2013-02-21 12:53:00
8:53 AM,28.0,17.1,63,30.25,10.0,Calm,Calm,-,N/A,,Partly Cloudy,0,2013-02-21 13:53:00
9:53 AM,32.0,17.1,54,30.25,10.0,Calm,Calm,-,N/A,,Scattered Clouds,0,2013-02-21 14:53:00
10:53 AM,37.0,16.0,42,30.24,10.0,ENE,4.6,-,N/A,,Partly Cloudy,60,2013-02-21 15:53:00
11:53 AM,41.0,14.0,33,30.20,10.0,Calm,Calm,-,N/A,,Partly Cloudy,0,2013-02-21 16:53:00
12:53 PM,45.0,15.1,30,30.16,10.0,NE,4.6,-,N/A,,Partly Cloudy,40,2013-02-21 17:53:00
1:53 PM,48.9,12.9,24,30.12,10.0,NNE,4.6,-,N/A,,Partly Cloudy,30,2013-02-21 18:53:00
2:53 PM,50.0,12.0,22,30.10,10.0,NE,5.8,-,N/A,,Scattered Clouds,40,2013-02-21 19:53:00
3:53 PM,51.1,12.0,21,30.10,10.0,ENE,4.6,-,N/A,,Mostly Cloudy,70,2013-02-21 20:53:00
4:53 PM,50.0,12.9,23,30.07,10.0,NE,5.8,-,N/A,,Overcast,40,2013-02-21 21:53:00
5:53 PM,48.0,17.1,29,30.06,10.0,NE,4.6,-,N/A,,Overcast,50,2013-02-21 22:53:00
6:53 PM,46.9,17.1,30,30.06,10.0,ENE,4.6,-,N/A,,Overcast,60,2013-02-21 23:53:00
7:53 PM,45.0,19.9,37,30.05,10.0,NE,4.6,-,N/A,,Overcast,50,2013-02-22 00:53:00
8:53 PM,46.9,18.0,32,30.07,10.0,SW,3.5,-,0.00,Rain,Light Rain,230,2013-02-22 01:53:00
9:53 PM,42.1,36.0,79,30.12,9.0,SW,6.9,-,0.01,Rain,Light Rain,230,2013-02-22 02:53:00
10:53 PM,39.9,35.1,83,30.12,7.0,Calm,Calm,-,0.10,Rain,Rain,0,2013-02-22 03:53:00
11:53 PM,41.0,36.0,82,30.12,8.0,ESE,5.8,-,0.09,Rain,Light Rain,110,2013-02-22 04:53:00